| time (UTC) | temp F | wind direction | speed MPH | gust MPH | rain 1hr in | rain 24hr in | rain mn in | humidity % | barometer mb |
| 20260505021538 | 59 | 25 | 0.0 | 1.0 | 0.00 | 0.00 | 0.00 | 67 | 1013.3 |
| 20260505020032 | 59 | 26 | 0.0 | 1.0 | 0.00 | 0.00 | 0.00 | 65 | 1013.0 |
| 20260505014533 | 60 | 26 | 0.0 | 1.0 | 0.00 | 0.00 | 0.00 | 63 | 1012.9 |
| 20260505013030 | 61 | 26 | 0.0 | 1.0 | 0.00 | 0.00 | 0.00 | 61 | 1012.7 |
| 20260505011527 | 62 | 25 | 0.0 | 1.0 | 0.00 | 0.00 | 0.00 | 60 | 1012.6 |
| 20260505010027 | 63 | 20 | 0.0 | 2.0 | 0.00 | 0.00 | 0.00 | 58 | 1012.5 |
| 20260505004525 | 64 | 28 | 0.0 | 2.0 | 0.00 | 0.00 | 0.00 | 57 | 1012.3 |
| 20260505003024 | 65 | 28 | 0.0 | 1.0 | 0.00 | 0.00 | 0.00 | 54 | 1012.1 |
| 20260505001524 | 66 | 28 | 0.0 | 0.0 | 0.00 | 0.00 | 0.00 | 52 | 1012.1 |
| 20260505000031 | 67 | 28 | 0.0 | 1.0 | 0.00 | 0.00 | 0.00 | 50 | 1012.0 |
| 20260504234646 | 69 | 28 | 0.0 | 2.0 | 0.00 | 0.00 | 0.00 | 47 | 1011.9 |
| 20260504233052 | 70 | 37 | 0.0 | 2.0 | 0.00 | 0.00 | 0.00 | 46 | 1011.9 |
| 20260504231601 | 72 | 350 | 0.0 | 4.0 | 0.00 | 0.00 | 0.00 | 43 | 1011.8 |
| 20260504230050 | 73 | 306 | 1.0 | 9.0 | 0.00 | 0.00 | 0.00 | 40 | 1011.8 |
| 20260504224549 | 74 | 304 | 4.0 | 10.0 | 0.00 | 0.00 | 0.00 | 40 | 1011.7 |
| 20260504223049 | 74 | 138 | 4.0 | 15.0 | 0.00 | 0.00 | 0.00 | 40 | 1011.8 |
| 20260504221557 | 74 | 267 | 8.0 | 13.0 | 0.00 | 0.00 | 0.00 | 40 | 1011.7 |
| 20260504220046 | 75 | 282 | 5.0 | 14.0 | 0.00 | 0.00 | 0.00 | 40 | 1011.7 |
| 20260504214546 | 76 | 263 | 7.0 | 13.0 | 0.00 | 0.00 | 0.00 | 38 | 1011.7 |
| 20260504213044 | 76 | 286 | 1.0 | 10.0 | 0.00 | 0.00 | 0.00 | 38 | 1011.6 |
| 20260504211550 | 76 | 286 | 2.0 | 9.0 | 0.00 | 0.00 | 0.00 | 37 | 1011.6 |
| 20260504210100 | 76 | 312 | 2.0 | 9.0 | 0.00 | 0.00 | 0.00 | 37 | 1011.6 |
| 20260504204547 | 77 | 20 | 4.0 | 11.0 | 0.00 | 0.00 | 0.00 | 37 | 1011.7 |
| 20260504203042 | 76 | 263 | 1.0 | 11.0 | 0.00 | 0.00 | 0.00 | 37 | 1011.9 |
| 20260504201535 | 76 | 312 | 4.0 | 8.0 | 0.00 | 0.00 | 0.00 | 41 | 1012.1 |
| 20260504200002 | 75 | 281 | 1.0 | 10.0 | 0.00 | 0.00 | 0.00 | 38 | 1012.4 |
| 20260504194610 | 74 | 277 | 4.0 | 10.0 | 0.00 | 0.00 | 0.00 | 38 | 1012.5 |
| 20260504193054 | 74 | 336 | 4.0 | 10.0 | 0.00 | 0.00 | 0.00 | 39 | 1012.6 |
| 20260504191551 | 74 | 257 | 5.0 | 12.0 | 0.00 | 0.00 | 0.00 | 37 | 1012.9 |
| 20260504190112 | 73 | 267 | 6.0 | 12.0 | 0.00 | 0.00 | 0.00 | 39 | 1013.1 |
| 20260504184555 | 73 | 304 | 4.0 | 9.0 | 0.00 | 0.00 | 0.00 | 39 | 1013.3 |
| 20260504183039 | 72 | 281 | 6.0 | 12.0 | 0.00 | 0.00 | 0.00 | 37 | 1013.4 |
| 20260504181544 | 72 | 232 | 3.0 | 8.0 | 0.00 | 0.00 | 0.00 | 41 | 1013.6 |
| 20260504180057 | 72 | 229 | 5.0 | 15.0 | 0.00 | 0.00 | 0.00 | 44 | 1013.9 |
| 20260504174533 | 71 | 264 | 3.0 | 8.0 | 0.00 | 0.00 | 0.00 | 45 | 1014.0 |
| 20260504173003 | 71 | 291 | 1.0 | 9.0 | 0.00 | 0.00 | 0.00 | 43 | 1014.0 |
| 20260504171602 | 71 | 259 | 0.0 | 9.0 | 0.00 | 0.00 | 0.00 | 44 | 1014.1 |
| 20260504081539 | 42 | 355 | 0.0 | 2.0 | 0.00 | 0.00 | 0.00 | 91 | 1015.7 |
| 20260504050019 | 47 | 30 | 0.0 | 2.0 | 0.00 | 0.00 | 0.00 | 79 | 1015.9 |
| 20260504044518 | 47 | 30 | 0.0 | 2.0 | 0.00 | 0.00 | 0.00 | 78 | 1015.7 |
| 20260504043018 | 48 | 30 | 0.0 | 1.0 | 0.00 | 0.00 | 0.00 | 77 | 1015.7 |
| 20260504041516 | 48 | 30 | 0.0 | 1.0 | 0.00 | 0.00 | 0.00 | 75 | 1015.9 |
| 20260504040016 | 49 | 30 | 0.0 | 2.0 | 0.00 | 0.00 | 0.00 | 73 | 1015.6 |
| 20260504034526 | 49 | 30 | 0.0 | 1.0 | 0.00 | 0.00 | 0.00 | 68 | 1015.4 |
| 20260504033018 | 49 | 30 | 0.0 | 1.0 | 0.00 | 0.00 | 0.00 | 68 | 1015.5 |
| 20260504031604 | 50 | 30 | 0.0 | 1.0 | 0.00 | 0.00 | 0.00 | 67 | 1015.7 |
| 20260504030046 | 50 | 30 | 0.0 | 1.0 | 0.00 | 0.00 | 0.00 | 67 | 1015.6 |
| 20260504024514 | 51 | 30 | 0.0 | 2.0 | 0.00 | 0.00 | 0.00 | 65 | 1015.8 |
| 20260504023013 | 51 | 11 | 0.0 | 1.0 | 0.00 | 0.00 | 0.00 | 66 | 1015.7 |